| time (UTC) | temp C | wind direction | speed KPH | gust KPH | rain 1hr cm | rain 24hr cm | rain mn cm | humidity % | barometer mb |
| 20260502170110 | 21 | 250 | 1.6 | 9.7 | 0.00 | 4.17 | 0.00 | 57 | 1021.5 |
| 20260502164050 | 21 | 357 | 3.2 | 12.9 | 0.00 | 4.19 | 0.00 | 57 | 1021.5 |
| 20260502163040 | 20 | 337 | 1.6 | 4.8 | 0.00 | 4.22 | 0.00 | 61 | 1021.4 |
| 20260502162030 | 20 | 277 | 3.2 | 11.3 | 0.00 | 4.27 | 0.00 | 63 | 1021.4 |
| 20260502161020 | 20 | 219 | 3.2 | 6.4 | 0.00 | 4.34 | 0.00 | 64 | 1021.4 |
| 20260502160111 | 19 | 224 | 1.6 | 9.7 | 0.00 | 4.45 | 0.00 | 64 | 1021.3 |
| 20260502152111 | 18 | 119 | 1.6 | 6.4 | 0.00 | 4.78 | 0.00 | 70 | 1021.0 |
| 20260502151100 | 18 | 112 | 3.2 | 9.7 | 0.00 | 4.78 | 0.00 | 71 | 1021.2 |
| 20260502150111 | 17 | 37 | 3.2 | 16.1 | 0.00 | 4.78 | 0.00 | 72 | 1021.1 |
| 20260502130113 | 12 | 296 | 1.6 | 4.8 | 0.00 | 5.49 | 0.00 | 91 | 1020.0 |
| 20260502123043 | 11 | 292 | 0.0 | 3.2 | 0.00 | 5.64 | 0.00 | 95 | 1019.4 |
| 20260502122033 | 11 | 295 | 1.6 | 3.2 | 0.00 | 5.64 | 0.00 | 95 | 1019.3 |
| 20260502121023 | 11 | 298 | 0.0 | 3.2 | 0.00 | 5.66 | 0.00 | 95 | 1019.5 |
| 20260502120114 | 11 | 352 | 0.0 | 1.6 | 0.00 | 5.69 | 0.00 | 95 | 1019.2 |
| 20260502115104 | 11 | 0.0 | 0.0 | 0.00 | 5.69 | 0.00 | 95 | 1019.1 | |
| 20260502114114 | 11 | 0.0 | 1.6 | 0.00 | 5.69 | 0.00 | 94 | 1019.0 | |
| 20260502113044 | 11 | 323 | 0.0 | 1.6 | 0.00 | 5.71 | 0.00 | 94 | 1018.9 |
| 20260502112034 | 11 | 314 | 0.0 | 4.8 | 0.00 | 5.71 | 0.00 | 94 | 1018.8 |
| 20260502111024 | 11 | 329 | 0.0 | 3.2 | 0.00 | 5.71 | 0.00 | 93 | 1018.7 |
| 20260502110114 | 11 | 340 | 1.6 | 3.2 | 0.00 | 5.71 | 0.00 | 93 | 1018.5 |
| 20260502105104 | 11 | 346 | 0.0 | 1.6 | 0.00 | 5.71 | 0.00 | 92 | 1018.5 |
| 20260502104054 | 11 | 183 | 0.0 | 3.2 | 0.00 | 5.74 | 0.00 | 92 | 1018.4 |
| 20260502103044 | 12 | 328 | 0.0 | 1.6 | 0.00 | 5.77 | 0.00 | 92 | 1018.2 |
| 20260502102034 | 12 | 287 | 0.0 | 3.2 | 0.00 | 5.77 | 0.00 | 91 | 1018.1 |
| 20260502101025 | 12 | 0.0 | 3.2 | 0.00 | 5.79 | 0.00 | 91 | 1018.0 | |
| 20260502100215 | 12 | 0.0 | 3.2 | 0.00 | 5.79 | 0.00 | 90 | 1017.9 | |
| 20260502091045 | 12 | 121 | 3.2 | 11.3 | 0.00 | 6.58 | 0.00 | 87 | 1016.8 |
| 20260502090116 | 13 | 118 | 0.0 | 3.2 | 0.00 | 7.57 | 0.00 | 88 | 1016.7 |
| 20260502071027 | 12 | 115 | 0.0 | 3.2 | 0.00 | 8.10 | 0.00 | 93 | 1016.7 |
| 20260502070016 | 12 | 47 | 1.6 | 3.2 | 0.00 | 8.13 | 0.00 | 93 | 1016.8 |
| 20260502065107 | 13 | 345 | 0.0 | 3.2 | 0.00 | 8.13 | 0.00 | 93 | 1016.8 |
| 20260502064057 | 13 | 222 | 1.6 | 4.8 | 0.00 | 8.15 | 0.00 | 92 | 1016.7 |
| 20260502063047 | 13 | 28 | 1.6 | 4.8 | 0.00 | 8.18 | 0.00 | 93 | 1016.8 |
| 20260502062037 | 13 | 62 | 1.6 | 4.8 | 0.00 | 8.18 | 0.00 | 93 | 1016.5 |
| 20260502061028 | 13 | 264 | 0.0 | 4.8 | 0.00 | 8.18 | 0.00 | 94 | 1016.4 |
| 20260502060017 | 13 | 16 | 1.6 | 6.4 | 0.00 | 8.18 | 0.00 | 94 | 1016.6 |
| 20260502055108 | 13 | 82 | 1.6 | 9.7 | 0.00 | 8.18 | 0.00 | 95 | 1016.6 |
| 20260502054058 | 13 | 96 | 1.6 | 6.4 | 0.00 | 8.18 | 0.00 | 95 | 1016.4 |
| 20260502053048 | 13 | 85 | 3.2 | 12.9 | 0.00 | 8.20 | 0.00 | 95 | 1016.5 |
| 20260502052038 | 13 | 39 | 3.2 | 9.7 | 0.00 | 8.20 | 0.00 | 95 | 1016.4 |
| 20260502051048 | 13 | 194 | 1.6 | 11.3 | 0.00 | 8.23 | 0.00 | 95 | 1016.2 |
| 20260502050018 | 13 | 18 | 3.2 | 9.7 | 0.00 | 8.23 | 0.00 | 96 | 1016.1 |
| 20260502045109 | 13 | 160 | 1.6 | 6.4 | 0.00 | 8.26 | 8.23 | 96 | 1016.0 |
| 20260502044059 | 13 | 25 | 1.6 | 12.9 | 0.00 | 8.56 | 8.23 | 96 | 1015.9 |
| 20260502043050 | 13 | 186 | 1.6 | 9.7 | 0.00 | 8.81 | 8.23 | 96 | 1016.0 |
| 20260502042039 | 13 | 252 | 1.6 | 4.8 | 0.00 | 8.81 | 8.23 | 96 | 1016.2 |
| 20260502041029 | 13 | 113 | 1.6 | 9.7 | 0.00 | 8.81 | 8.23 | 96 | 1016.1 |
| 20260502040019 | 13 | 66 | 3.2 | 17.7 | 0.00 | 8.81 | 8.23 | 97 | 1016.0 |
| 20260502035130 | 13 | 184 | 1.6 | 9.7 | 0.00 | 8.81 | 8.23 | 97 | 1016.2 |
| 20260502034100 | 13 | 138 | 0.0 | 4.8 | 0.00 | 8.81 | 8.23 | 97 | 1016.2 |
| 20260502033049 | 13 | 335 | 1.6 | 11.3 | 0.00 | 8.81 | 8.23 | 97 | 1015.9 |
| 20260502032100 | 13 | 206 | 1.6 | 4.8 | 0.03 | 8.81 | 8.23 | 97 | 1015.6 |
| 20260502031029 | 13 | 169 | 1.6 | 9.7 | 0.03 | 8.81 | 8.23 | 97 | 1015.6 |
| 20260502030019 | 13 | 271 | 3.2 | 9.7 | 0.05 | 8.81 | 8.23 | 97 | 1015.4 |
| 20260502025110 | 13 | 339 | 1.6 | 9.7 | 0.08 | 8.81 | 8.23 | 97 | 1015.0 |
| 20260502024101 | 13 | 234 | 1.6 | 9.7 | 0.13 | 8.81 | 8.23 | 97 | 1014.7 |
| 20260502023051 | 13 | 307 | 1.6 | 6.4 | 0.23 | 8.81 | 8.23 | 97 | 1014.4 |
| 20260502022040 | 13 | 298 | 3.2 | 9.7 | 0.23 | 8.79 | 8.20 | 97 | 1014.2 |
| 20260502021030 | 13 | 140 | 4.8 | 14.5 | 0.25 | 8.79 | 8.20 | 97 | 1013.9 |
| 20260502020040 | 14 | 88 | 1.6 | 4.8 | 0.30 | 8.76 | 8.18 | 97 | 1014.1 |
| 20260502015111 | 14 | 236 | 1.6 | 3.2 | 0.38 | 8.74 | 8.15 | 97 | 1014.1 |
| 20260502014101 | 15 | 309 | 1.6 | 6.4 | 0.36 | 8.69 | 8.10 | 97 | 1013.8 |
| 20260502013051 | 15 | 296 | 1.6 | 9.7 | 0.28 | 8.59 | 8.00 | 97 | 1013.8 |
| 20260502012041 | 15 | 295 | 1.6 | 4.8 | 0.28 | 8.56 | 7.98 | 97 | 1013.8 |
| 20260502011031 | 15 | 175 | 0.0 | 3.2 | 0.33 | 8.53 | 7.95 | 97 | 1013.2 |
| 20260502010021 | 15 | 328 | 0.0 | 4.8 | 0.30 | 8.46 | 7.87 | 97 | 1013.1 |
| 20260502005112 | 15 | 1 | 3.2 | 9.7 | 0.30 | 8.36 | 7.77 | 97 | 1013.3 |
| 20260502004102 | 15 | 82 | 1.6 | 4.8 | 0.36 | 8.33 | 7.75 | 97 | 1014.2 |
| 20260502003052 | 15 | 301 | 1.6 | 11.3 | 0.43 | 8.31 | 7.72 | 97 | 1012.7 |
| 20260502002102 | 15 | 151 | 1.6 | 11.3 | 0.43 | 8.28 | 7.70 | 97 | 1012.1 |
| 20260502001032 | 15 | 44 | 3.2 | 11.3 | 0.38 | 8.20 | 7.62 | 97 | 1012.5 |
| 20260502000042 | 15 | 157 | 1.6 | 4.8 | 0.41 | 8.15 | 7.57 | 97 | 1012.6 |
| 20260501235113 | 15 | 252 | 1.6 | 6.4 | 0.58 | 8.05 | 7.47 | 97 | 1012.7 |
| 20260501234103 | 15 | 352 | 1.6 | 6.4 | 0.64 | 7.98 | 7.39 | 97 | 1013.4 |
| 20260501233053 | 15 | 239 | 3.2 | 6.4 | 0.53 | 7.87 | 7.29 | 97 | 1012.4 |
| 20260501232103 | 15 | 59 | 3.2 | 6.4 | 0.51 | 7.85 | 7.26 | 97 | 1011.2 |
| 20260501231032 | 15 | 27 | 4.8 | 12.9 | 0.48 | 7.82 | 7.24 | 97 | 1010.5 |
| 20260501230023 | 16 | 162 | 3.2 | 20.9 | 0.41 | 7.75 | 7.16 | 97 | 1011.1 |
| 20260501225113 | 16 | 53 | 1.6 | 9.7 | 0.13 | 7.47 | 6.88 | 97 | 1011.8 |
| 20260501224104 | 16 | 355 | 3.2 | 17.7 | 0.00 | 7.34 | 6.76 | 97 | 1011.2 |
| 20260501223053 | 16 | 60 | 8.0 | 27.4 | 0.00 | 7.34 | 6.76 | 97 | 1010.4 |
| 20260501222104 | 16 | 45 | 3.2 | 12.9 | 0.00 | 7.34 | 6.76 | 97 | 1010.4 |
| 20260501221034 | 16 | 44 | 3.2 | 17.7 | 0.05 | 7.34 | 6.76 | 97 | 1010.2 |
| 20260501220023 | 16 | 31 | 3.2 | 6.4 | 0.10 | 7.34 | 6.76 | 98 | 1010.4 |
| 20260501215134 | 16 | 90 | 3.2 | 9.7 | 0.13 | 7.34 | 6.76 | 98 | 1010.9 |
| 20260501214104 | 17 | 67 | 1.6 | 3.2 | 0.15 | 7.34 | 6.76 | 98 | 1011.3 |
| 20260501213114 | 17 | 93 | 3.2 | 9.7 | 0.18 | 7.34 | 6.76 | 98 | 1010.9 |
| 20260501212044 | 16 | 71 | 1.6 | 3.2 | 0.28 | 7.34 | 6.76 | 98 | 1011.7 |
| 20260501211034 | 16 | 150 | 1.6 | 4.8 | 0.36 | 7.29 | 6.71 | 98 | 1011.2 |
| 20260501210024 | 16 | 299 | 3.2 | 11.3 | 0.38 | 7.24 | 6.65 | 98 | 1010.8 |
| 20260501205115 | 16 | 285 | 0.0 | 6.4 | 0.41 | 7.21 | 6.63 | 98 | 1010.1 |
| 20260501204105 | 17 | 42 | 3.2 | 9.7 | 0.43 | 7.19 | 6.60 | 98 | 1010.1 |
| 20260501203055 | 17 | 41 | 1.6 | 4.8 | 0.46 | 7.16 | 6.58 | 98 | 1010.2 |
| 20260501202045 | 17 | 67 | 3.2 | 9.7 | 0.38 | 7.06 | 6.48 | 98 | 1010.2 |
| 20260501201035 | 17 | 276 | 0.0 | 6.4 | 0.28 | 6.93 | 6.35 | 98 | 1009.7 |
| 20260501200025 | 17 | 101 | 1.6 | 6.4 | 0.23 | 6.86 | 6.27 | 98 | 1009.5 |
| 20260501195116 | 17 | 83 | 1.6 | 6.4 | 0.66 | 6.81 | 6.22 | 98 | 1009.7 |
| 20260501194106 | 17 | 172 | 1.6 | 6.4 | 0.86 | 6.76 | 6.17 | 98 | 1009.8 |
| 20260501193116 | 17 | 136 | 1.6 | 3.2 | 0.84 | 6.71 | 6.12 | 98 | 1009.7 |
| 20260501192046 | 17 | 61 | 1.6 | 6.4 | 0.84 | 6.68 | 6.10 | 98 | 1009.7 |
| 20260501191115 | 17 | 114 | 1.6 | 4.8 | 1.27 | 6.65 | 6.07 | 98 | 1009.8 |
| 20260501190025 | 17 | 202 | 1.6 | 12.9 | 1.45 | 6.63 | 6.05 | 98 | 1009.8 |
| 20260501185117 | 17 | 192 | 0.0 | 3.2 | 1.04 | 6.15 | 5.56 | 98 | 1010.7 |
| 20260501184106 | 17 | 294 | 1.6 | 9.7 | 1.04 | 5.89 | 5.31 | 98 | 1009.7 |
| 20260501183056 | 17 | 51 | 0.0 | 11.3 | 1.17 | 5.87 | 5.28 | 98 | 1009.9 |
| 20260501182046 | 17 | 7 | 4.8 | 14.5 | 1.19 | 5.84 | 5.26 | 98 | 1008.8 |
| 20260501181036 | 17 | 64 | 1.6 | 6.4 | 0.74 | 5.38 | 4.80 | 97 | 1009.8 |
| 20260501180026 | 17 | 344 | 4.8 | 11.3 | 0.53 | 5.18 | 4.60 | 97 | 1009.1 |
| 20260501175017 | 17 | 260 | 3.2 | 9.7 | 0.48 | 5.11 | 4.52 | 97 | 1009.5 |
| 20260501174107 | 17 | 97 | 3.2 | 6.4 | 0.23 | 4.85 | 4.27 | 97 | 1009.9 |